User: anonymous   Login
Location: Franzen
(48.6167°N, 15.3833°E)
Time: 04:09:25
(UTC+00:00)
Language:

FALCON 9 DEB - Orbit

View from above orbital plane
View from above orbital plane
View from above satellite
View from above satellite

Ground track
Ground track

The orbit data is extracted from the following two-line orbital elements,

1 46084U 20055BK  21164.68591001  .00011672  00000-0  12497-3 0  9991
2 46084  53.0114 217.1507 0010196 236.7009 123.3029 15.64340620 53071
Epoch (UTC): 13 June 2021 16:27:42
Eccentricity: 0.0010196
inclination: 53.0114°
perigee height: 368 km
apogee height: 382 km
right ascension of ascending node: 217.1507°
argument of perigee: 236.7009°
revolutions per day: 15.64340620
mean anomaly at epoch: 123.3029°
orbit number at epoch: 5307

The dashed part of the orbit path shows where the satellite is in the earth's shadow,  

DLR